sat.trackr.live / text

‹ back to catalog

STARLINK-11372 [DTC]

NORAD 61576 · 2024-187C

PAYLOAD ACTIVE UNKNOWN

§ Identity

Operator
Country
US
Launch date
2024-10-18
Launch site
AFETR
Launch vehicle
Mass (kg)
RCS (m²)

Purposes: comms

External: N2YO · Heavens-Above · Gunter

§ Orbital elements

Epoch: 2026-05-25T02:33:02.909952Z

Period
91.74 min
Inclination
53.1595°
Eccentricity
0.0000979
Mean motion
15.69710385 rev/d
Perigee alt
359.1 km
Apogee alt
360.4 km
Semi-major
6,737.9 km
B*
1.1652e-5
RAAN
279.4555°
Arg perigee
96.3369°
Mean anomaly
263.7760°
Rev number
9,275

§ Raw data

STARLINK-11372 [DTC]1 61576U 24187C   26145.10628368  .00000823  00000+0  11652-4 0  99902 61576  53.1595 279.4555 0000979  96.3369 263.7760 15.69710385 92752

JSON: /api/v1/satellites/61576 · /tle

For live sub-satellite position, see the globe view (requires WebGL).

§ Visibility from observer

Set your observer location to see the next 7 days of passes ≥ 10°. The values pass through the URL so the page stays shareable.

No JS? Fill the form by hand. The geolocation button needs JavaScript.